Cloud_Cover
0 1 4 0 0 0 0 0 0 0 0 0 0 0 0 0 0 0 0 0 0 0 0 0 0 0 0 0 0 0 0 3 5 5 5 38 77 63 5 5 5 5 5 5
0 0 0 0 0 0 0 0 0 0 0 0 0 0 0 0 0 0 0 0 0 0 0 0 0 0 0 0 0 0 5 5 5 8 96 100 100 81 71 35 15 68 7 62
0 0 0 0 0 0 0 0 0 0 0 0 0 0 0 0 0 0 0 0 0 0 0 0 0 0 0 0 0 1 5 5 85 100 79 51 99 94 90 92 82 89 100 78
0 0 0 0 0 0 0 0 0 0 0 11 0 26 3 0 0 0 0 0 0 0 0 0 0 4 5 2 4 5 5 5 5 5 5 75 88 46 9 78 93 72 5 21
0 0 0 0 0 0 0 0 0 0 0 0 0 0 7 0 0 0 0 0 0 0 0 0 1 5 5 5 5 5 5 5 5 5 19 40 29 55 12 53 53 69 56 18
0 0 0 0 0 0 0 0 0 0 0 0 2 0 68 20 4 1 0 0 0 0 0 3 5 2 5 5 5 16 42 25 72 94 88 100 91 72 71 31 35 48 82 96
0 0 0 0 0 0 0 0 4 24 33 37 4 0 32 0 0 0 1 5 0 0 0 2 4 5 5 32 96 100 100 100 81 96 96 100 60 54 45 72 100 100 36 6
0 4 0 0 0 0 0 0 3 4 3 16 0 0 9 0 0 0 0 0 0 0 0 0 5 25 52 81 100 100 84 9 5 22 94 49 98 97 77 21 23 76 59 20
0 0 0 0 0 0 5 4 0 0 1 0 0 3 0 0 0 0 0 0 0 1 5 5 21 100 84 56 50 43 12 13 59 7 31 38 98 100 100 98 75 41 67 91
0 2 0 0 0 0 0 0 3 21 44 1 20 36 95 5 0 5 4 3 3 5 5 47 97 47 39 22 5 12 19 42 99 100 81 98 76 28 71 87 6 6 98 100
0 0 1 5 1 0 4 5 2 1 2 5 4 16 2 7 10 33 21 5 5 5 22 96 52 48 90 100 89 100 59 24 21 45 16 10 43 92 30 8 90 100 100 100
0 0 0 0 1 4 0 0 0 5 5 23 4 70 0 0 2 5 0 5 9 61 66 61 100 100 100 100 66 29 8 8 26 42 89 100 99 20 84 100 100 88 54 70
0 0 0 0 0 1 0 3 4 1 5 5 5 4 47 12 25 44 88 98 74 91 99 100 100 100 100 98 88 49 91 100 100 100 100 100 100 100 88 42 44 77 81 82
5 5 5 5 4 0 0 0 5 5 5 20 7 94 100 100 100 97 98 96 61 59 95 100 100 100 54 72 100 100 100 100 100 100 96 40 11 46 97 62 11 100 95 97
0 0 0 0 2 1 0 4 5 5 20 96 17 99 100 100 98 88 78 69 70 100 100 72 37 94 100 100 92 100 99 94 77 58 14 35 62 100 53 55 21 57 59 92
2 4 0 0 0 0 0 0 5 5 5 100 94 100 97 90 88 95 86 100 100 100 100 95 100 97 100 100 98 100 99 41 97 94 5 40 83 100 92 73 84 100 99 100
0 1 3 21 7 5 10 0 1 5 95 100 100 100 86 92 75 80 68 77 54 95 99 100 99 100 100 100 100 100 100 90 6 5 49 71 100 97 100 100 100 100 95 8
5 2 46 68 72 50 5 17 33 82 78 81 89 98 92 97 100 20 27 6 48 97 49 83 96 100 100 100 100 100 98 16 5 11 72 100 99 100 89 100 100 90 5 5
4 58 56 78 5 5 5 24 5 7 5 27 39 76 92 100 100 79 69 68 73 38 83 95 100 99 100 100 67 8 5 5 5 48 100 83 100 100 100 100 55 5 6 21
5 54 14 97 58 52 5 75 29 56 100 91 90 89 62 98 49 100 100 95 70 87 98 100 96 59 83 99 79 66 74 84 100 100 100 100 100 100 100 75 5 12 63 100
85 98 100 100 98 13 6 5 5 49 82 62 35 49 85 84 100 98 100 80 100 96 74 73 92 75 89 99 100 100 100 100 100 100 100 96 100 100 92 70 18 94 100 85
32 61 78 77 97 68 10 48 90 79 39 53 100 62 100 98 83 92 100 100 78 74 93 97 21 5 11 100 100 100 100 100 100 100 100 100 100 100 99 63 98 100 100 100
20 7 49 75 21 100 100 100 85 99 95 21 53 48 77 91 72 90 70 84 85 62 65 72 76 88 99 76 8 100 100 88 81 99 68 100 100 100 100 86 100 100 99 99
55 59 75 77 47 100 100 100 61 62 99 57 100 98 64 11 79 72 24 11 36 73 94 55 10 5 10 86 100 100 100 39 97 99 91 100 100 100 100 100 100 100 100 100
100 90 33 76 85 63 32 66 99 100 91 57 94 99 78 99 88 13 5 23 68 6 2 5 6 85 100 98 100 100 100 99 100 80 99 100 100 100 100 100 100 99 100 78
100 50 27 73 90 99 100 100 100 100 34 77 98 97 31 5 5 36 99 64 11 4 5 17 23 30 59 100 98 62 58 100 74 90 100 100 100 100 100 100 99 100 58 18